DW6610 Weather Reports


Display with metric or nautical units.
time (UTC)temp
F
wind
direction
speed
MPH
gust
MPH
rain 1hr
in
rain 24hr
in
rain mn
in
humidity
%
barometer
mb
20260903132552 86 0 0.0 1.0 0.00 0.00 0.00 79 1017.7
20260903132051 84 0 0.0 1.0 0.00 0.00 0.00 81 1017.7
20260903131605 82 0 0.0 0.0 0.00 0.00 0.00 85 1017.9
20260903131052 80 0 0.0 1.0 0.00 0.00 0.00 88 1017.9
20260903130554 79 0 0.0 1.0 0.00 0.00 0.00 89 1018.0
20260903130111 78 0 0.0 1.0 0.00 0.00 0.00 89 1018.0
20260903125553 77 82 0.0 1.0 0.00 0.00 0.00 92 1017.9
20260903125051 76 0 0.0 1.0 0.00 0.00 0.00 93 1017.8
20260903124607 75 0 0.0 1.0 0.00 0.00 0.00 93 1017.8
20260903124051 75 81 0.0 1.0 0.00 0.00 0.00 94 1017.9
20260903123551 75 81 0.0 1.0 0.00 0.00 0.00 95 1017.9
20260903123105 74 0 0.0 1.0 0.00 0.00 0.00 95 1017.9
20260903122553 74 0 0.0 0.0 0.00 0.00 0.00 96 1017.7
20260903122051 74 0 0.0 0.0 0.00 0.00 0.00 96 1017.6
20260903121601 74 0 0.0 0.0 0.00 0.00 0.00 96 1017.4
20260903121052 74 0 0.0 0.0 0.00 0.00 0.00 96 1017.3
20260903120554 73 0 0.0 0.0 0.00 0.00 0.00 96 1017.4
20260903115551 73 0 0.0 0.0 0.00 0.00 0.00 96 1017.4
20260903115052 73 0 0.0 0.0 0.00 0.00 0.00 96 1017.3
20260903114619 73 0 0.0 0.0 0.00 0.00 0.00 96 1017.3
20260903114055 73 0 0.0 0.0 0.00 0.00 0.00 96 1017.2
20260903113551 73 0 0.0 1.0 0.00 0.00 0.00 96 1017.1
20260903113106 73 0 0.0 1.0 0.00 0.00 0.00 95 1017.1
20260903112553 73 0 0.0 1.0 0.00 0.00 0.00 96 1017.1
20260903112052 73 0 0.0 1.0 0.00 0.00 0.00 95 1017.2
20260903111617 73 0 0.0 1.0 0.00 0.00 0.00 95 1017.0
20260903111051 73 0 0.0 1.0 0.00 0.00 0.00 95 1017.0
20260903110550 74 0 0.0 0.0 0.00 0.00 0.00 95 1016.9
20260903110110 74 0 0.0 0.0 0.00 0.00 0.00 95 1016.8
20260903105554 74 0 0.0 0.0 0.00 0.00 0.00 95 1016.9
20260903105055 74 0 0.0 0.0 0.00 0.00 0.00 94 1016.9
20260903104615 74 0 0.0 0.0 0.00 0.00 0.00 94 1016.8
20260903104051 74 0 0.0 0.0 0.00 0.00 0.00 94 1016.7
20260903103551 74 0 0.0 0.0 0.00 0.00 0.00 93 1016.8
20260903103117 74 0 0.0 0.0 0.00 0.00 0.00 93 1016.7
20260903102552 74 0 0.0 0.0 0.00 0.00 0.00 93 1016.8
20260903102053 74 0 0.0 0.0 0.00 0.00 0.00 93 1016.8
20260903101607 74 0 0.0 0.0 0.00 0.00 0.00 93 1016.8
20260903101052 74 0 0.0 0.0 0.00 0.00 0.00 92 1016.7
20260903100555 74 0 0.0 0.0 0.00 0.00 0.00 92 1016.8
20260903100105 74 0 0.0 0.0 0.00 0.00 0.00 92 1016.7
20260903095551 74 0 0.0 0.0 0.00 0.00 0.00 93 1016.7
20260903095051 74 0 0.0 0.0 0.00 0.00 0.00 92 1016.7
20260903094604 74 0 0.0 0.0 0.00 0.00 0.00 92 1016.6
20260903094052 74 0 0.0 0.0 0.00 0.00 0.00 92 1016.6
20260903093552 74 0 0.0 0.0 0.00 0.00 0.00 92 1016.7
20260903093128 74 0 0.0 0.0 0.00 0.00 0.00 91 1016.6
20260903092551 74 0 0.0 0.0 0.00 0.00 0.00 91 1016.6
20260903092052 74 0 0.0 0.0 0.00 0.00 0.00 91 1016.6
20260903091608 74 0 0.0 0.0 0.00 0.00 0.00 91 1016.7
20260903091052 75 0 0.0 0.0 0.00 0.00 0.00 91 1016.5
20260903090553 75 0 0.0 0.0 0.00 0.00 0.00 91 1016.6
20260903085552 75 0 0.0 0.0 0.00 0.00 0.00 91 1016.6
20260903085051 75 0 0.0 1.0 0.00 0.00 0.00 91 1016.5
20260903084600 75 0 0.0 1.0 0.00 0.00 0.00 91 1016.6
20260903084051 75 0 0.0 1.0 0.00 0.00 0.00 91 1016.6
20260903083553 75 0 0.0 0.0 0.00 0.00 0.00 91 1016.5
20260903083100 75 0 0.0 0.0 0.00 0.00 0.00 91 1016.5
20260903082552 75 0 0.0 0.0 0.00 0.00 0.00 91 1016.5
20260903082052 76 0 0.0 0.0 0.00 0.00 0.00 91 1016.4
20260903081603 76 0 0.0 0.0 0.00 0.00 0.00 91 1016.4
20260903081052 76 0 0.0 0.0 0.00 0.00 0.00 90 1016.4
20260903080553 75 0 0.0 0.0 0.00 0.00 0.00 90 1016.4
20260903080059 76 0 0.0 0.0 0.00 0.00 0.00 89 1016.4
20260903075552 76 0 0.0 0.0 0.00 0.00 0.00 89 1016.3
20260903075055 76 0 0.0 0.0 0.00 0.00 0.00 89 1016.4
20260903074600 76 0 0.0 0.0 0.00 0.00 0.00 90 1016.3
20260903074051 76 0 0.0 0.0 0.00 0.00 0.00 90 1016.4
20260903073554 76 0 0.0 0.0 0.00 0.00 0.00 89 1016.3
20260903073101 76 0 0.0 0.0 0.00 0.00 0.00 89 1016.3
20260903072551 76 0 0.0 0.0 0.00 0.00 0.00 88 1016.3
20260903072052 77 0 0.0 0.0 0.00 0.00 0.00 88 1016.3
20260903071629 77 0 0.0 1.0 0.00 0.00 0.00 88 1016.4
20260903071052 77 0 0.0 1.0 0.00 0.00 0.00 87 1016.4
20260903070552 77 0 0.0 1.0 0.00 0.00 0.00 87 1016.4
20260903070111 78 0 0.0 1.0 0.00 0.00 0.00 87 1016.4
20260903065552 78 0 0.0 1.0 0.00 0.00 0.00 86 1016.5
20260903065051 78 0 0.0 1.0 0.00 0.00 0.00 85 1016.5
20260903064606 78 0 0.0 1.0 0.00 0.00 0.00 84 1016.5
20260903064052 79 77 0.0 1.0 0.00 0.00 0.00 84 1016.5
20260903063552 79 0 0.0 1.0 0.00 0.00 0.00 83 1016.4
20260903063107 79 0 0.0 1.0 0.00 0.00 0.00 82 1016.5
20260903062554 79 0 0.0 3.0 0.00 0.00 0.00 82 1016.6
20260903062053 79 0 0.0 3.0 0.00 0.00 0.00 82 1016.6
20260903061611 79 60 1.0 3.0 0.00 0.00 0.00 83 1016.5
20260903061051 78 66 0.0 2.0 0.00 0.00 0.00 84 1016.4
20260903060551 78 0 0.0 2.0 0.00 0.00 0.00 87 1016.6
20260903060107 78 112 0.0 1.0 0.00 0.00 0.00 88 1016.6
20260903055553 78 112 0.0 1.0 0.00 0.00 0.00 89 1016.6
20260903055051 78 0 0.0 1.0 0.00 0.00 0.00 89 1016.6
20260903054600 78 0 0.0 1.0 0.00 0.00 0.00 88 1016.6
20260903054052 78 0 0.0 0.0 0.00 0.00 0.00 88 1016.5
20260903053551 78 0 0.0 0.0 0.00 0.00 0.00 89 1016.5
20260903053103 78 0 0.0 0.0 0.00 0.00 0.00 88 1016.6
20260903052552 78 0 0.0 1.0 0.00 0.00 0.00 88 1016.6
20260903052052 78 0 0.0 1.0 0.00 0.00 0.00 89 1016.5
20260903051610 78 0 0.0 1.0 0.00 0.00 0.00 89 1016.5
20260903051051 78 0 0.0 1.0 0.00 0.00 0.00 90 1016.5
20260903050551 78 0 0.0 1.0 0.00 0.00 0.00 90 1016.5
20260903050115 78 0 0.0 1.0 0.00 0.00 0.00 90 1016.5
20260903045551 79 0 0.0 1.0 0.00 0.00 0.00 90 1016.5
20260903045051 79 0 0.0 1.0 0.00 0.00 0.00 90 1016.5
20260903044606 79 0 0.0 1.0 0.00 0.00 0.00 89 1016.5
20260903044052 79 0 0.0 0.0 0.00 0.00 0.00 87 1016.5
20260903043552 79 0 0.0 0.0 0.00 0.00 0.00 86 1016.4
20260903043103 79 0 0.0 0.0 0.00 0.00 0.00 86 1016.4
20260903042551 79 0 0.0 1.0 0.00 0.00 0.00 86 1016.4
20260903042054 79 0 0.0 1.0 0.00 0.00 0.00 86 1016.4
20260903041612 79 0 0.0 1.0 0.00 0.00 0.00 86 1016.4
20260903041051 79 0 0.0 0.0 0.00 0.00 0.00 85 1016.4
20260903040554 80 0 0.0 1.0 0.00 0.00 0.00 85 1016.4
20260903040111 80 0 0.0 1.0 0.00 0.00 0.00 85 1016.5
20260903035551 80 0 0.0 1.0 0.00 0.00 0.00 85 1016.5
20260903035051 80 0 0.0 1.0 0.00 0.00 0.00 85 1016.4
20260903034609 80 0 0.0 1.0 0.00 0.00 0.00 84 1016.5
20260903034052 81 126 0.0 1.0 0.00 0.00 0.00 84 1016.4
20260903033551 80 97 0.0 1.0 0.00 0.00 0.00 83 1016.4
20260903033103 80 94 0.0 0.0 0.00 0.00 0.00 83 1016.5
20260903032551 79 0 0.0 0.0 0.00 0.00 0.00 85 1016.5
20260903032052 79 0 0.0 0.0 0.00 0.00 0.00 85 1016.5
20260903031557 80 0 0.0 0.0 0.00 0.00 0.00 85 1016.5
20260903031054 80 0 0.0 0.0 0.00 0.00 0.00 85 1016.5
20260903030554 80 0 0.0 0.0 0.00 0.00 0.00 86 1016.6
20260903030103 80 0 0.0 0.0 0.00 0.00 0.00 85 1016.6
20260903025550 81 0 0.0 1.0 0.00 0.00 0.00 85 1016.5
20260903025053 81 0 0.0 1.0 0.00 0.00 0.00 84 1016.5
20260903024604 81 0 0.0 0.0 0.00 0.00 0.00 84 1016.4
20260903024052 81 0 0.0 0.0 0.00 0.00 0.00 83 1016.5
20260903023551 81 0 0.0 0.0 0.00 0.00 0.00 83 1016.4
20260903023103 82 0 0.0 1.0 0.00 0.00 0.00 82 1016.4
20260903022554 82 0 0.0 1.0 0.00 0.00 0.00 82 1016.4
20260903022051 82 93 0.0 1.0 0.00 0.00 0.00 82 1016.3
20260903021605 83 0 0.0 1.0 0.00 0.00 0.00 81 1016.3
20260903021054 83 0 0.0 1.0 0.00 0.00 0.00 80 1016.2
20260903020554 83 0 0.0 1.0 0.00 0.00 0.00 79 1016.1
20260903020104 83 0 0.0 1.0 0.00 0.00 0.00 79 1016.1
20260903015552 83 0 0.0 0.0 0.00 0.00 0.00 77 1016.0
20260903015052 83 0 0.0 1.0 0.00 0.00 0.00 77 1015.9
20260903014625 83 0 0.0 1.0 0.00 0.00 0.00 77 1015.9
20260903014054 84 0 0.0 1.0 0.00 0.00 0.00 79 1015.9
20260903013552 84 0 0.0 1.0 0.00 0.00 0.00 79 1015.7
20260903013110 84 94 0.0 1.0 0.00 0.00 0.00 78 1015.7
20260903012551 84 94 0.0 1.0 0.00 0.00 0.00 78 1015.8
20260903012052 84 0 0.0 0.0 0.00 0.00 0.00 78 1015.8
20260903011603 85 0 0.0 0.0 0.00 0.00 0.00 77 1015.7
20260903011052 85 0 0.0 1.0 0.00 0.00 0.00 76 1015.6
20260903010551 86 0 0.0 1.0 0.00 0.00 0.00 76 1015.6
20260903005553 86 0 0.0 1.0 0.00 0.00 0.00 73 1015.5
20260903005052 87 0 0.0 1.0 0.00 0.00 0.00 72 1015.6
20260903004602 87 0 0.0 0.0 0.00 0.00 0.00 72 1015.5
20260903004051 87 0 0.0 0.0 0.00 0.00 0.00 70 1015.5
20260903003552 88 0 0.0 0.0 0.00 0.00 0.00 70 1015.6
20260903003120 88 0 0.0 1.0 0.00 0.00 0.00 70 1015.5
20260903002551 89 0 0.0 1.0 0.00 0.00 0.00 67 1015.5
20260903002050 89 0 0.0 0.0 0.00 0.00 0.00 68 1015.6
20260903001603 90 0 0.0 0.0 0.00 0.00 0.00 67 1015.5
20260903001052 90 0 0.0 0.0 0.00 0.00 0.00 66 1015.5
20260903000553 91 0 0.0 1.0 0.00 0.00 0.00 64 1015.6
20260903000109 91 0 0.0 1.0 0.00 0.00 0.00 63 1015.6
20260902235552 91 0 0.0 0.0 0.00 0.00 0.00 60 1015.6
20260902235055 92 0 0.0 0.0 0.00 0.00 0.00 58 1015.6
20260902234606 92 0 0.0 1.0 0.00 0.00 0.00 57 1015.6
20260902234053 93 0 0.0 1.0 0.00 0.00 0.00 55 1015.6
20260902233550 93 93 0.0 1.0 0.00 0.00 0.00 55 1015.6
20260902233100 94 0 0.0 1.0 0.00 0.00 0.00 55 1015.6
20260902232552 94 0 0.0 1.0 0.00 0.00 0.00 54 1015.6
20260902232051 95 0 0.0 1.0 0.00 0.00 0.00 54 1015.7
20260902231607 95 0 0.0 1.0 0.00 0.00 0.00 52 1015.7
20260902231052 95 0 0.0 1.0 0.00 0.00 0.00 51 1015.7
20260902230551 96 0 0.0 1.0 0.00 0.00 0.00 50 1015.8
20260902230119 96 0 0.0 1.0 0.00 0.00 0.00 49 1015.7
20260902225554 97 100 0.0 2.0 0.00 0.00 0.00 48 1015.6
20260902225053 98 101 0.0 2.0 0.00 0.00 0.00 47 1015.7
20260902224612 98 84 0.0 2.0 0.00 0.00 0.00 46 1015.7
20260902224051 99 0 0.0 2.0 0.00 0.00 0.00 45 1015.7
20260902223554 100 92 1.0 2.0 0.00 0.00 0.00 44 1015.7
20260902223114 100 70 1.0 2.0 0.00 0.00 0.00 45 1015.7
20260902222552 100 144 0.0 3.0 0.00 0.00 0.00 45 1015.7
20260902222053 100 266 1.0 3.0 0.00 0.00 0.00 45 1015.9
20260902221610 99 89 1.0 3.0 0.00 0.00 0.00 46 1015.9
20260902221055 99 61 0.0 3.0 0.00 0.00 0.00 46 1015.9
20260902220552 99 0 0.0 3.0 0.00 0.00 0.00 45 1015.9
20260902220111 100 295 1.0 4.0 0.00 0.00 0.00 44 1015.8
20260902215552 100 305 1.0 6.0 0.00 0.00 0.00 45 1015.8
20260902215051 100 185 2.0 6.0 0.00 0.00 0.00 45 1015.9
20260902214624 101 270 2.0 5.0 0.00 0.00 0.00 44 1015.8
20260902214052 102 108 2.0 6.0 0.00 0.00 0.00 44 1015.9
20260902213551 102 143 3.0 6.0 0.00 0.00 0.00 42 1016.0
20260902213101 103 85 1.0 6.0 0.00 0.00 0.00 43 1015.9
20260902212553 103 37 2.0 6.0 0.00 0.00 0.00 41 1016.0
20260902212052 102 132 1.0 5.0 0.00 0.00 0.00 41 1016.0
20260902211603 103 18 1.0 6.0 0.00 0.00 0.00 42 1016.0
20260902211051 102 39 2.0 6.0 0.00 0.00 0.00 42 1016.0
20260902210555 103 159 2.0 6.0 0.00 0.00 0.00 43 1016.0
20260902210103 103 115 1.0 7.0 0.00 0.00 0.00 43 1016.1
20260902205552 103 58 2.0 7.0 0.00 0.00 0.00 42 1016.0
20260902205051 103 50 1.0 6.0 0.00 0.00 0.00 41 1016.1
20260902204611 103 89 2.0 6.0 0.00 0.00 0.00 43 1016.1
20260902204053 103 163 1.0 4.0 0.00 0.00 0.00 44 1016.2
20260902203552 103 100 1.0 5.0 0.00 0.00 0.00 45 1016.3
20260902203102 103 49 1.0 6.0 0.00 0.00 0.00 44 1016.3
20260902202552 102 73 1.0 6.0 0.00 0.00 0.00 43 1016.3
20260902202052 102 95 2.0 5.0 0.00 0.00 0.00 46 1016.4
20260902201623 102 91 2.0 5.0 0.00 0.00 0.00 44 1016.5
20260902201051 102 71 1.0 5.0 0.00 0.00 0.00 43 1016.5
20260902200551 102 303 1.0 5.0 0.00 0.00 0.00 46 1016.6
20260902200108 102 86 2.0 6.0 0.00 0.00 0.00 44 1016.7
20260902195552 102 0 1.0 6.0 0.00 0.00 0.00 47 1016.7
20260902195051 102 108 1.0 6.0 0.00 0.00 0.00 46 1016.7
20260902194603 101 290 2.0 6.0 0.00 0.00 0.00 47 1016.9
20260902194051 101 27 1.0 6.0 0.00 0.00 0.00 48 1016.8
20260902193554 101 35 2.0 6.0 0.00 0.00 0.00 49 1017.0
20260902193105 100 269 1.0 3.0 0.00 0.00 0.00 48 1017.0
20260902192551 100 143 1.0 6.0 0.00 0.00 0.00 45 1017.1
20260902192051 101 94 2.0 6.0 0.00 0.00 0.00 45 1017.2
20260902191606 102 325 3.0 5.0 0.00 0.00 0.00 46 1017.3
20260902191051 101 84 2.0 7.0 0.00 0.00 0.00 48 1017.2
20260902190552 101 34 2.0 7.0 0.00 0.00 0.00 46 1017.4
20260902190104 101 87 2.0 5.0 0.00 0.00 0.00 49 1017.4
20260902185550 101 95 2.0 5.0 0.00 0.00 0.00 49 1017.4
20260902185052 100 114 2.0 7.0 0.00 0.00 0.00 46 1017.5
20260902184657 99 98 3.0 7.0 0.00 0.00 0.00 48 1017.5
20260902184051 99 67 1.0 5.0 0.00 0.00 0.00 50 1017.5
20260902183552 98 255 1.0 5.0 0.00 0.00 0.00 49 1017.6
20260902183105 100 26 2.0 7.0 0.00 0.00 0.00 45 1017.7
20260902182552 101 94 3.0 7.0 0.00 0.00 0.00 47 1017.9
20260902182051 101 71 2.0 7.0 0.00 0.00 0.00 50 1017.9
20260902181604 101 50 1.0 5.0 0.00 0.00 0.00 48 1017.9
20260902181051 100 86 2.0 7.0 0.00 0.00 0.00 47 1017.9
20260902180551 100 97 2.0 7.0 0.00 0.00 0.00 48 1018.0
20260902180118 99 87 2.0 4.0 0.00 0.00 0.00 50 1018.0
20260902175552 99 64 2.0 4.0 0.00 0.00 0.00 49 1018.1
20260902175052 99 153 1.0 6.0 0.00 0.00 0.00 50 1018.2
20260902174609 100 92 2.0 6.0 0.00 0.00 0.00 47 1018.3
20260902174054 99 37 2.0 6.0 0.00 0.00 0.00 49 1018.3
20260902173553 99 261 2.0 5.0 0.00 0.00 0.00 51 1018.4
20260902173104 100 115 0.0 5.0 0.00 0.00 0.00 51 1018.4
20260902172551 98 92 2.0 5.0 0.00 0.00 0.00 55 1018.5
20260902172052 98 283 1.0 5.0 0.00 0.00 0.00 52 1018.5
20260902171606 99 25 1.0 5.0 0.00 0.00 0.00 52 1018.6
20260902171051 100 79 2.0 5.0 0.00 0.00 0.00 50 1018.8
20260902170551 100 46 1.0 5.0 0.00 0.00 0.00 51 1018.9
20260902170105 99 24 1.0 6.0 0.00 0.00 0.00 53 1019.1
20260902165552 99 47 2.0 6.0 0.00 0.00 0.00 50 1019.1
20260902165052 100 331 3.0 6.0 0.00 0.00 0.00 50 1019.2
20260902164607 100 319 1.0 5.0 0.00 0.00 0.00 51 1019.3
20260902164052 99 105 1.0 3.0 0.00 0.00 0.00 58 1019.3
20260902163552 99 13 1.0 5.0 0.00 0.00 0.00 57 1019.4
20260902163101 99 100 1.0 5.0 0.00 0.00 0.00 55 1019.5
20260902162551 98 65 0.0 4.0 0.00 0.00 0.00 57 1019.5
20260902162054 98 93 0.0 5.0 0.00 0.00 0.00 61 1019.6
20260902161604 97 98 2.0 5.0 0.00 0.00 0.00 58 1019.6
20260902161052 98 94 0.0 3.0 0.00 0.00 0.00 61 1019.6
20260902160551 98 105 0.0 3.0 0.00 0.00 0.00 60 1019.5
20260902155552 96 134 1.0 4.0 0.00 0.00 0.00 58 1019.6
20260902155118 96 84 1.0 4.0 0.00 0.00 0.00 59 1019.6
20260902154602 96 42 1.0 4.0 0.00 0.00 0.00 59 1019.6
20260902154051 96 56 0.0 4.0 0.00 0.00 0.00 61 1019.6
20260902153551 96 76 1.0 4.0 0.00 0.00 0.00 60 1019.7
20260902153113 96 101 1.0 4.0 0.00 0.00 0.00 60 1019.7
20260902152551 95 80 1.0 4.0 0.00 0.00 0.00 62 1019.7
20260902152051 95 97 1.0 4.0 0.00 0.00 0.00 66 1019.6
20260902151603 95 169 1.0 4.0 0.00 0.00 0.00 64 1019.6
20260902151055 95 141 1.0 4.0 0.00 0.00 0.00 65 1019.7
20260902150551 95 99 1.0 3.0 0.00 0.00 0.00 63 1019.7
20260902150105 95 86 1.0 3.0 0.00 0.00 0.00 67 1019.7
20260902145552 95 89 1.0 3.0 0.00 0.00 0.00 65 1019.7
20260902145051 94 79 0.0 1.0 0.00 0.00 0.00 67 1019.7
20260902144604 94 115 0.0 1.0 0.00 0.00 0.00 66 1019.7
20260902144051 93 112 0.0 2.0 0.00 0.00 0.00 68 1019.7
20260902143551 92 113 0.0 2.0 0.00 0.00 0.00 70 1019.7
20260902143105 92 164 1.0 2.0 0.00 0.00 0.00 68 1019.7
20260902142552 92 0 0.0 2.0 0.00 0.00 0.00 70 1019.7
20260902142053 92 92 0.0 2.0 0.00 0.00 0.00 69 1019.7
20260902141604 91 70 0.0 1.0 0.00 0.00 0.00 70 1019.7
20260902141052 90 115 0.0 3.0 0.00 0.00 0.00 71 1019.7
20260902140552 90 107 0.0 3.0 0.00 0.00 0.00 72 1019.7
20260902140108 89 92 0.0 2.0 0.00 0.00 0.00 72 1019.7
20260902135551 89 73 0.0 2.0 0.00 0.00 0.00 74 1019.8
20260902135051 88 86 0.0 2.0 0.00 0.00 0.00 73 1019.8
20260902134604 88 0 0.0 2.0 0.00 0.00 0.00 74 1019.8
20260902134051 87 0 0.0 2.0 0.00 0.00 0.00 74 1019.7
20260902133552 86 0 0.0 2.0 0.00 0.00 0.00 77 1019.8
20260902133105 85 0 0.0 2.0 0.00 0.00 0.00 79 1019.7